Temp_Advection
nan nan nan nan nan nan nan nan nan nan nan nan nan nan nan nan nan nan nan nan nan nan nan nan nan nan nan
nan -0 -0 -0 -0 -1 -2 -2 -0 1 0 -1 -1 -1 -1 -2 -3 -1 -1 -2 -1 -3 -6 -5 2 -1 nan
nan -0 -0 -0 -0 -0 -0 -0 -1 -0 -0 -0 -0 -1 -1 -0 -1 -2 -1 -1 -1 -1 -3 -4 -5 -4 nan
nan -1 -0 -0 -0 -0 -1 -0 -0 -0 -0 -0 -0 -0 -1 -1 -1 -1 -1 -1 -1 -1 -1 -2 -3 -6 nan
nan -1 -1 -0 -0 -0 -0 -0 -1 -0 -0 -1 -0 -0 -0 -0 -0 -0 -1 -2 -1 -1 -1 -1 -2 -3 nan
nan -0 -1 -1 -0 -0 -0 -0 -1 -1 -0 -0 -0 -0 -0 -0 -0 -0 -0 -1 -2 -1 0 -0 -1 -2 nan
nan -1 -1 -1 -1 -1 -0 -0 -1 -1 -0 -1 -0 -0 -0 -0 0 -0 -0 -0 -1 -1 -1 -1 -1 -1 nan
nan -0 -0 -0 -1 -1 -1 -1 -1 -0 0 -1 -1 0 -1 -1 -0 -0 -0 -0 -0 -0 -1 -1 -1 -1 nan
nan -0 -0 -0 -0 0 0 -0 -1 -1 -0 -0 -1 -0 -0 -1 -1 -1 -0 -0 -0 -0 -0 -1 -1 -1 nan
nan -0 -0 -0 -0 -0 0 0 -0 -1 -1 -0 -0 -0 -1 -1 -0 -0 -1 -1 -0 -0 -0 -1 -1 -1 nan
nan -1 -1 -0 -0 -0 -0 0 -0 -1 -1 0 -0 -0 -1 -1 -1 -1 -1 -1 -1 -1 -0 -0 -0 -0 nan
nan -0 -0 -0 -0 -0 -0 0 -0 -1 -0 1 0 -0 -1 -1 -1 -1 -1 -1 -1 -1 -1 -1 -0 -0 nan
nan -1 -0 -0 -0 -0 -1 -0 -1 -1 -0 1 0 -1 0 0 -1 -1 -1 -1 -1 -1 -1 -0 -1 -1 nan
nan -1 -1 -1 -0 -0 -0 -0 -0 -1 -0 0 0 -0 -0 -0 -1 -0 -0 -1 -1 -1 -1 -1 -1 -1 nan
nan -1 -1 -0 -0 -0 -0 -0 -0 -1 -1 -0 -0 -0 -0 0 -0 -1 -1 -1 -1 -0 -0 -1 -1 -1 nan
nan -0 -1 -1 -0 -0 -0 -0 -0 -1 -1 -0 -0 -0 -1 -0 -0 -0 -0 -0 -1 -0 -0 -0 -2 -2 nan
nan nan nan nan nan nan nan nan nan nan nan nan nan nan nan nan nan nan nan nan nan nan nan nan nan nan nan
Wind_Speed
24 24 26 29 29 35 39 39 34 32 33 36 34 33 34 33 31 29 31 33 37 43 51 53 35 39 41
25 25 25 26 28 30 32 34 37 34 30 31 32 30 29 29 34 34 34 33 33 35 40 55 57 45 41
29 26 26 26 28 29 31 32 31 30 30 31 31 33 35 33 33 32 30 26 29 31 33 38 48 61 51
30 28 27 28 28 31 32 31 36 35 37 34 33 33 33 31 28 27 31 32 35 37 38 39 41 47 61
33 33 31 29 31 30 34 35 37 36 40 38 35 35 30 31 31 29 30 33 34 35 37 39 40 43 47
33 35 39 35 34 34 34 35 38 33 37 43 38 38 39 38 34 33 34 35 34 36 36 36 36 37 40
38 39 38 38 35 36 37 38 42 42 38 46 42 41 40 37 35 36 36 36 36 35 34 34 34 35 35
31 35 35 38 40 41 42 45 48 47 41 44 47 42 41 41 38 39 38 37 37 38 37 37 40 42 41
34 37 38 39 40 43 44 41 44 40 33 37 43 48 46 46 45 42 41 41 41 41 41 40 41 36 39
37 37 38 38 37 41 45 37 35 36 41 39 40 39 46 49 42 40 41 40 38 37 37 35 34 35 42
41 42 43 38 30 30 31 34 37 39 45 40 40 39 40 50 47 45 42 45 45 44 42 41 39 37 41
35 36 33 33 34 33 32 33 37 39 46 41 40 39 42 45 51 47 43 42 42 45 45 42 39 39 40
29 32 33 35 34 36 39 39 39 41 43 40 35 39 42 45 48 47 44 42 44 44 38 40 41 41 40
34 36 37 38 38 38 38 38 39 42 42 39 36 37 43 44 44 50 43 45 42 44 44 46 47 45 48
33 34 36 37 38 38 38 38 39 41 45 41 39 40 43 45 46 47 47 46 46 45 42 46 49 49 49
32 35 37 39 40 39 39 40 41 43 43 42 40 40 43 48 43 47 50 50 48 46 44 44 47 49 49
34 35 38 39 37 40 41 41 43 44 45 42 40 38 41 46 47 39 46 47 44 44 43 44 48 50 47
Wind_Direction
286 292 295 301 304 307 309 309 308 306 305 303 301 299 296 292 291 288 284 282 279 277 266 256 244 224 223
287 291 293 295 299 301 305 305 304 303 301 301 302 299 296 294 289 287 287 283 283 278 276 268 259 258 228
286 288 291 295 298 299 299 300 299 302 301 300 296 293 293 291 289 286 285 283 269 270 273 272 270 262 249
282 286 289 291 290 293 295 296 297 298 296 297 298 296 293 291 290 282 279 277 274 276 275 275 270 271 264
280 284 287 286 289 289 290 293 293 294 296 297 297 298 293 291 289 289 288 286 282 281 279 277 279 278 274
278 278 280 284 285 287 289 290 289 290 293 292 293 289 289 291 289 286 286 287 289 281 279 279 278 278 278
273 274 279 282 284 284 282 282 282 288 290 287 289 286 288 289 287 285 285 283 281 281 282 279 279 276 276
271 274 275 279 280 282 284 285 288 288 287 278 291 284 289 287 285 283 283 282 281 281 280 278 275 278 279
275 275 275 276 278 281 279 280 279 281 283 284 285 289 288 286 284 281 280 279 278 276 276 276 280 284 279
280 277 277 277 275 274 273 282 283 288 289 284 286 286 288 284 283 281 280 281 277 277 277 275 272 270 275
279 281 285 279 280 284 281 281 281 279 284 282 283 284 280 283 284 280 278 279 279 279 276 274 273 270 271
283 280 278 282 285 284 282 278 276 276 285 282 279 279 278 280 279 282 279 277 275 277 278 277 273 271 268
284 284 285 287 287 284 286 285 284 285 284 285 278 277 274 272 276 278 281 276 274 273 274 270 271 276 275
282 284 286 289 290 286 286 286 284 285 287 286 281 277 275 273 274 277 275 275 276 271 270 271 269 267 270
280 283 284 285 283 285 282 282 277 279 284 284 283 280 276 273 268 269 273 272 274 272 270 269 268 266 266
281 281 283 285 284 283 280 278 276 277 277 280 279 277 274 273 265 268 270 269 271 272 269 265 267 267 264
285 289 293 291 284 281 281 278 276 275 276 277 273 268 269 269 274 265 264 265 266 265 264 262 265 271 267
Height
1498 1496 1492 1489 1486 1484 1480 1476 1473 1470 1467 1465 1463 1462 1460 1459 1457 1457 1455 1455 1454 1453 1453 1457 1458 1461 1463
1491 1489 1486 1483 1480 1476 1473 1471 1466 1463 1460 1458 1456 1455 1453 1451 1448 1446 1445 1444 1443 1441 1442 1445 1446 1449 1447
1482 1482 1480 1478 1474 1471 1468 1464 1461 1457 1454 1452 1450 1447 1443 1441 1439 1437 1436 1435 1434 1434 1434 1433 1433 1432 1436
1477 1475 1474 1472 1469 1464 1460 1459 1454 1451 1448 1444 1440 1437 1434 1432 1430 1429 1427 1426 1425 1424 1423 1423 1422 1419 1420
1470 1467 1465 1464 1462 1459 1453 1451 1446 1445 1439 1435 1432 1429 1426 1424 1422 1420 1418 1416 1414 1412 1411 1410 1409 1407 1406
1462 1459 1455 1455 1453 1451 1447 1443 1436 1439 1433 1425 1424 1419 1417 1414 1413 1411 1408 1405 1403 1401 1400 1399 1398 1397 1394
1453 1450 1448 1445 1445 1442 1439 1435 1429 1427 1426 1414 1414 1409 1408 1405 1402 1400 1397 1395 1393 1391 1390 1389 1388 1386 1385
1445 1441 1440 1437 1435 1432 1429 1424 1418 1416 1416 1406 1401 1397 1397 1393 1392 1390 1387 1384 1382 1381 1379 1377 1376 1374 1372
1435 1432 1430 1427 1426 1423 1418 1415 1407 1406 1405 1400 1393 1389 1385 1380 1379 1379 1376 1373 1371 1369 1368 1366 1364 1362 1360
1424 1420 1419 1416 1414 1412 1407 1403 1399 1395 1395 1391 1386 1384 1374 1368 1368 1365 1362 1360 1358 1356 1355 1354 1354 1352 1346
1411 1408 1406 1404 1402 1401 1399 1396 1391 1386 1383 1381 1377 1373 1369 1356 1353 1352 1351 1347 1346 1344 1343 1341 1340 1341 1337
1400 1398 1396 1394 1392 1390 1388 1385 1382 1377 1369 1371 1367 1365 1357 1350 1340 1338 1338 1336 1334 1330 1328 1326 1327 1327 1326
1392 1389 1387 1384 1382 1378 1375 1373 1368 1363 1358 1357 1357 1352 1347 1339 1331 1326 1325 1323 1322 1319 1317 1315 1314 1313 1312
1383 1380 1377 1374 1370 1368 1364 1360 1356 1349 1346 1344 1343 1340 1332 1329 1324 1313 1315 1309 1309 1306 1304 1302 1301 1300 1298
1375 1371 1367 1364 1359 1357 1353 1349 1344 1338 1332 1331 1330 1326 1320 1316 1310 1305 1300 1297 1294 1293 1294 1288 1285 1284 1282
1366 1362 1357 1353 1348 1345 1341 1336 1331 1325 1320 1319 1317 1312 1305 1296 1298 1292 1287 1283 1282 1280 1280 1276 1269 1267 1266
1355 1350 1346 1341 1338 1332 1327 1323 1316 1311 1307 1306 1304 1301 1292 1279 1278 1282 1274 1270 1269 1266 1264 1262 1255 1250 1252